Delta, CO

3:19 AM MDT on October 23, 2017 (GMT -0600)
Delta

Weather History for KAJZ - December, 2012

Change the Weather History Date:

Friday, December 7, 2012

  Actual Average (KMTJ) Record (KMTJ)
Temperature  
Mean Temperature 44 °F -  
Max Temperature 56 °F 38 °F 55 °F (2003)
Min Temperature 32 °F 17 °F 3 °F (2005)
Degree Days  
Heating Degree Days 21    
Moisture  
Dew Point 29 °F    
Average Humidity 62    
Maximum Humidity 92    
Minimum Humidity 28    
Precipitation  
Precipitation 0.00 in - - ()
Sea Level Pressure  
Sea Level Pressure 29.97 in    
Wind  
Wind Speed 2 mph (WNW)    
Max Wind Speed 12 mph    
Max Gust Speed 16 mph    
Visibility 10 miles    
Events Rain    
Averages and records for this station are not official NWS values.
T = Trace of Precipitation, MM = Missing Value Source: NWS Daily Summary

Daily Weather History Graph

Daily Weather History Graph

Search for Another Location

Airport or City:

Trip Planner

Search our weather history database for the weather conditions in past years. The results will help you decide how hot, cold, wet, or windy it might be!

Date:

Astronomy

Dec. 07, 2012 Rise Set
Actual Time 7:17 AM MST 4:50 PM MST
Civil Twilight 6:47 AM MST 5:20 PM MST
Nautical Twilight 6:14 AM MST 5:53 PM MST
Astronomical Twilight 5:42 AM MST 6:25 PM MST
Moon 12:43 AM MST (12/7) 12:46 PM MST (12/7)
Length of Visible Light 10h 32m
Length of Day
9h 32m
Last Quarter, 38% of the Moon is Illuminated
Dec 7
Last Quarter
Dec 13
New
Dec 19
First Quarter
Dec 28
Full
Jan 4
Last Quarter

Hourly Weather History & Observations

Time (MST) Temp. Windchill Dew Point Humidity Pressure Visibility Wind Dir Wind Speed Gust Speed Precip Events Conditions
12:15 AM 37.8 °F - 28.6 °F 69% 29.98 in 10.0 mi Calm Calm - N/A   Overcast
12:35 AM 36.0 °F - 27.9 °F 72% 29.97 in 10.0 mi Calm Calm - N/A   Overcast
12:55 AM 36.7 °F - 29.1 °F 74% 29.97 in 10.0 mi Calm Calm - N/A   Overcast
1:15 AM 36.9 °F 33.1 °F 29.3 °F 74% 29.97 in 10.0 mi NNE 4.6 mph - N/A   Overcast
1:35 AM 37.9 °F 35.5 °F 29.5 °F 72% 29.97 in 10.0 mi NE 3.5 mph - N/A   Overcast
1:55 AM 38.1 °F 33.7 °F 29.8 °F 72% 29.97 in 10.0 mi NE 5.8 mph - N/A   Overcast
2:15 AM 38.1 °F - 29.7 °F 72% 29.97 in 10.0 mi Calm Calm - N/A   Mostly Cloudy
2:35 AM 37.8 °F - 28.9 °F 71% 29.97 in 10.0 mi Calm Calm - N/A   Overcast
2:55 AM 37.4 °F - 28.8 °F 71% 29.97 in 10.0 mi Calm Calm - N/A   Overcast
3:15 AM 38.3 °F - 29.3 °F 70% 29.97 in 10.0 mi Calm Calm - N/A   Overcast
3:35 AM 38.1 °F - 31.6 °F 77% 29.97 in 7.0 mi Calm Calm - N/A Rain Rain
3:55 AM 38.3 °F - 33.4 °F 83% 29.96 in 10.0 mi Calm Calm - N/A   Overcast
4:15 AM 37.9 °F - 33.8 °F 85% 29.96 in 10.0 mi Calm Calm - N/A   Overcast
4:35 AM 35.4 °F - 32.0 °F 87% 29.96 in 10.0 mi Calm Calm - N/A   Scattered Clouds
4:55 AM 34.2 °F 31.2 °F 32.0 °F 92% 29.96 in 10.0 mi NE 3.5 mph - N/A   Clear
5:15 AM 34.7 °F 31.8 °F 32.0 °F 90% 29.97 in 10.0 mi ENE 3.5 mph - N/A   Clear
5:35 AM 34.9 °F - 32.0 °F 89% 29.97 in 10.0 mi Calm Calm - N/A   Clear
5:55 AM 34.3 °F - 31.8 °F 90% 29.97 in 10.0 mi Calm Calm - N/A   Clear
6:15 AM 35.1 °F - 31.6 °F 87% 29.98 in 10.0 mi Calm Calm - N/A   Clear
6:35 AM 35.6 °F 32.8 °F 31.3 °F 84% 29.99 in 10.0 mi ESE 3.5 mph - N/A   Clear
6:55 AM 32.5 °F 29.3 °F 29.8 °F 90% 29.99 in 10.0 mi NNE 3.5 mph - N/A   Clear
7:15 AM 32.4 °F - 29.8 °F 90% 30.00 in 10.0 mi Calm Calm - N/A   Clear
7:35 AM 32.4 °F - 29.3 °F 88% 30.00 in 10.0 mi Calm Calm - N/A   Scattered Clouds
7:55 AM 33.1 °F - 30.4 °F 90% 30.00 in 10.0 mi Calm Calm - N/A   Mostly Cloudy
8:15 AM 35.8 °F - 32.4 °F 87% 30.00 in 10.0 mi Calm Calm - N/A   Overcast
8:35 AM 36.7 °F - 32.4 °F 84% 30.02 in 10.0 mi Calm Calm - N/A   Mostly Cloudy
8:55 AM 38.1 °F - 32.7 °F 81% 30.02 in 10.0 mi Calm Calm - N/A   Scattered Clouds
9:15 AM 40.5 °F - 33.6 °F 77% 30.02 in 10.0 mi Calm Calm - N/A   Clear
9:35 AM 41.9 °F - 34.0 °F 73% 30.01 in 10.0 mi Calm Calm - N/A   Clear
9:55 AM 43.7 °F - 34.5 °F 70% 30.01 in 10.0 mi Calm Calm - N/A   Clear
10:15 AM 45.1 °F - 34.7 °F 67% 30.01 in 10.0 mi Calm Calm - N/A   Clear
10:35 AM 46.4 °F - 34.3 °F 63% 30.00 in 10.0 mi Calm Calm - N/A   Clear
10:55 AM 47.8 °F - 34.2 °F 59% 30.00 in 10.0 mi Calm Calm - N/A   Clear
11:15 AM 48.2 °F - 33.4 °F 57% 29.99 in 10.0 mi Calm Calm - N/A   Clear
11:35 AM 49.5 °F - 33.6 °F 54% 29.98 in 10.0 mi East 3.5 mph - N/A   Clear
11:55 AM 50.2 °F - 32.5 °F 51% 29.97 in 10.0 mi South 3.5 mph - N/A   Clear
12:15 PM 50.9 °F - 32.2 °F 49% 29.96 in 10.0 mi Calm Calm - N/A   Clear
12:35 PM 52.7 °F - 31.1 °F 44% 29.96 in 10.0 mi SW 4.6 mph - N/A   Clear
12:55 PM 53.2 °F - 30.9 °F 43% 29.95 in 10.0 mi West 4.6 mph - N/A   Clear
1:15 PM 54.0 °F - 30.9 °F 41% 29.94 in 10.0 mi SW 6.9 mph - N/A   Clear
1:35 PM 54.5 °F - 31.1 °F 41% 29.93 in 10.0 mi SSW 8.1 mph - N/A   Clear
1:55 PM 55.8 °F - 28.2 °F 35% 29.92 in 10.0 mi SW 10.4 mph - N/A   Clear
2:15 PM 56.3 °F - 23.2 °F 28% 29.92 in 10.0 mi WNW 9.2 mph - N/A   Scattered Clouds
2:35 PM 55.6 °F - 23.0 °F 28% 29.92 in 10.0 mi West 9.2 mph - N/A   Scattered Clouds
2:55 PM 55.4 °F - 22.5 °F 28% 29.92 in 10.0 mi WNW 8.1 mph 16.1 mph N/A   Clear
3:15 PM 55.4 °F - 23.2 °F 29% 29.92 in 10.0 mi West 8.1 mph - N/A   Clear
3:35 PM 54.7 °F - 23.7 °F 30% 29.92 in 10.0 mi West 10.4 mph - N/A   Clear
3:55 PM 54.5 °F - 24.4 °F 31% 29.92 in 10.0 mi West 5.8 mph - N/A   Clear
4:15 PM 53.8 °F - 24.4 °F 32% 29.92 in 10.0 mi West 11.5 mph - N/A   Clear
4:35 PM 52.5 °F - 24.6 °F 34% 29.92 in 10.0 mi WNW 10.4 mph - N/A   Clear
4:55 PM 51.3 °F - 25.2 °F 36% 29.92 in 10.0 mi West 5.8 mph - N/A   Clear
5:15 PM 49.8 °F - 25.7 °F 39% 29.93 in 10.0 mi SSW 3.5 mph - N/A   Clear
5:35 PM 48.2 °F - 28.0 °F 46% 29.94 in 10.0 mi Calm Calm - N/A   Clear
6:15 PM 45.3 °F - 29.1 °F 53% 29.95 in 10.0 mi Calm Calm - N/A   Clear
6:35 PM 43.5 °F 41.9 °F 28.4 °F 55% 29.95 in 10.0 mi SW 3.5 mph - N/A   Clear
6:55 PM 43.2 °F 41.5 °F 27.7 °F 54% 29.95 in 10.0 mi SW 3.5 mph - N/A   Clear
7:35 PM 43.7 °F 42.1 °F 26.6 °F 51% 29.96 in 10.0 mi West 3.5 mph - N/A   Clear
7:55 PM 43.5 °F 40.9 °F 25.9 °F 50% 29.96 in 10.0 mi SSW 4.6 mph - N/A   Mostly Cloudy
8:15 PM 40.1 °F 38.0 °F 26.6 °F 59% 29.96 in 10.0 mi South 3.5 mph - N/A   Mostly Cloudy
8:35 PM 40.1 °F 38.0 °F 25.7 °F 56% 29.96 in 10.0 mi SW 3.5 mph - N/A   Scattered Clouds
8:55 PM 39.4 °F - 24.1 °F 54% 29.97 in 10.0 mi Calm Calm - N/A   Clear
9:15 PM 37.0 °F - 24.4 °F 60% 29.97 in 10.0 mi Calm Calm - N/A   Clear
9:35 PM 38.7 °F - 25.0 °F 58% 29.97 in 10.0 mi Calm Calm - N/A   Clear
9:55 PM 36.5 °F 31.8 °F 23.9 °F 60% 29.97 in 10.0 mi NNE 5.8 mph - N/A   Clear
10:15 PM 35.4 °F 30.5 °F 23.4 °F 62% 29.97 in 10.0 mi NNE 5.8 mph - N/A   Clear
10:35 PM 35.4 °F 32.6 °F 23.0 °F 61% 29.97 in 10.0 mi NE 3.5 mph - N/A   Clear
10:55 PM 36.5 °F 33.9 °F 23.2 °F 59% 29.97 in 10.0 mi NE 3.5 mph - N/A   Clear
11:15 PM 35.2 °F 31.2 °F 23.0 °F 61% 29.97 in 10.0 mi NE 4.6 mph - N/A   Clear
11:35 PM 35.4 °F 32.6 °F 23.0 °F 61% 29.97 in 10.0 mi NE 3.5 mph - N/A   Clear
11:55 PM 35.4 °F 32.6 °F 22.8 °F 60% 29.96 in 10.0 mi East 3.5 mph - N/A   Clear